Franklin, NC

6:23 PM EST on November 20, 2017 (GMT -0500)
Franklin

Weather History for K1A5 - December, 2012

Change the Weather History Date:

Friday, December 28, 2012

  Actual Average (KTOC) Record (KTOC)
Temperature  
Mean Temperature 36 °F -  
Max Temperature 47 °F 53 °F 70 °F (2015)
Min Temperature 24 °F 33 °F 30 °F (2013)
Degree Days  
Heating Degree Days 30    
Moisture  
Dew Point 28 °F    
Average Humidity 78    
Maximum Humidity 96    
Minimum Humidity 48    
Precipitation  
Precipitation 0.19 in - - ()
Sea Level Pressure  
Sea Level Pressure 30.01 in    
Wind  
Wind Speed 0 mph (SSE)    
Max Wind Speed 8 mph    
Max Gust Speed -    
Visibility 8 miles    
Events Fog , Rain    
Averages and records for this station are not official NWS values.
T = Trace of Precipitation, MM = Missing Value Source: NWS Daily Summary

Daily Weather History Graph

Daily Weather History Graph

Search for Another Location

Airport or City:

Trip Planner

Search our weather history database for the weather conditions in past years. The results will help you decide how hot, cold, wet, or windy it might be!

Date:

Astronomy

Dec. 28, 2012 Rise Set
Actual Time 7:41 AM EST 5:29 PM EST
Civil Twilight 7:13 AM EST 5:57 PM EST
Nautical Twilight 6:41 AM EST 6:29 PM EST
Astronomical Twilight 6:10 AM EST 7:00 PM EST
Moon 6:03 PM EST (12/28) 7:36 AM EST (12/28)
Length of Visible Light 10h 44m
Length of Day
9h 48m
Full, 100% of the Moon is Illuminated
Dec 28
Full
Jan 4
Last Quarter
Jan 11
New
Jan 18
First Quarter
Jan 26
Full

Hourly Weather History & Observations

Time (EST) Temp. Windchill Dew Point Humidity Pressure Visibility Wind Dir Wind Speed Gust Speed Precip Events Conditions
12:15 AM 26.2 °F - 24.8 °F 94% 30.06 in 10.0 mi Calm Calm - N/A   Clear
12:35 AM 26.6 °F - 25.3 °F 95% 30.05 in 10.0 mi Calm Calm - N/A   Clear
12:55 AM 25.9 °F - 24.6 °F 95% 30.05 in 7.0 mi Calm Calm - N/A   Clear
1:15 AM 25.9 °F - 24.8 °F 96% 30.05 in 7.0 mi Calm Calm - N/A   Clear
1:35 AM 25.7 °F - 24.4 °F 95% 30.05 in 10.0 mi Calm Calm - N/A   Clear
1:55 AM 25.0 °F - 23.7 °F 95% 30.06 in 10.0 mi Calm Calm - N/A   Clear
2:15 AM 25.2 °F - 24.1 °F 96% 30.06 in 7.0 mi Calm Calm - N/A   Clear
2:35 AM 25.3 °F - 24.1 °F 95% 30.06 in 10.0 mi Calm Calm - N/A   Clear
2:55 AM 25.2 °F - 24.1 °F 96% 30.06 in 7.0 mi Calm Calm - N/A   Clear
3:15 AM 24.8 °F - 23.7 °F 96% 30.06 in 10.0 mi Calm Calm - N/A   Clear
3:35 AM 25.5 °F - 24.3 °F 95% 30.06 in 10.0 mi Calm Calm - N/A   Scattered Clouds
3:55 AM 26.4 °F - 25.2 °F 95% 30.06 in 5.0 mi Calm Calm - N/A   Overcast
4:15 AM 25.9 °F - 24.8 °F 96% 30.06 in 5.0 mi Calm Calm - N/A   Overcast
4:35 AM 26.1 °F - 25.2 °F 96% 30.06 in 2.5 mi Calm Calm - N/A   Overcast
4:55 AM 25.7 °F - 24.8 °F 96% 30.06 in 0.5 mi Calm Calm - N/A Fog Light Freezing Fog
5:15 AM 25.9 °F - 25.0 °F 96% 30.06 in 0.2 mi Calm Calm - N/A Fog Light Freezing Fog
5:35 AM 25.9 °F - 25.0 °F 96% 30.06 in 0.5 mi Calm Calm - N/A Fog Light Freezing Fog
5:55 AM 25.9 °F - 25.0 °F 96% 30.06 in 0.5 mi Calm Calm - N/A Fog Light Freezing Fog
6:15 AM 26.1 °F - 25.2 °F 96% 30.06 in 3.0 mi Calm Calm - N/A   Overcast
6:35 AM 26.2 °F - 25.3 °F 96% 30.07 in 1.8 mi Calm Calm - N/A   Overcast
7:15 AM 27.1 °F - 26.2 °F 96% 30.08 in 4.0 mi Calm Calm - N/A   Overcast
7:35 AM 27.3 °F - 26.4 °F 96% 30.08 in 5.0 mi Calm Calm - N/A   Overcast
7:55 AM 27.5 °F - 26.6 °F 96% 30.07 in 7.0 mi Calm Calm - N/A   Overcast
8:15 AM 27.5 °F - 26.6 °F 96% 30.08 in 7.0 mi Calm Calm - N/A   Overcast
8:55 AM 28.4 °F - 27.5 °F 96% 30.08 in 10.0 mi Calm Calm - N/A   Mostly Cloudy
9:15 AM 28.8 °F - 27.9 °F 96% 30.09 in 10.0 mi Calm Calm - N/A   Scattered Clouds
9:35 AM 29.7 °F - 28.4 °F 95% 30.10 in 10.0 mi Calm Calm - N/A   Clear
9:55 AM 30.4 °F - 29.3 °F 96% 30.09 in 10.0 mi Calm Calm - N/A   Clear
10:15 AM 32.0 °F - 30.6 °F 94% 30.11 in 10.0 mi Calm Calm - N/A   Clear
10:35 AM 34.3 °F - 30.6 °F 86% 30.11 in 10.0 mi Calm Calm - N/A   Mostly Cloudy
10:55 AM 34.5 °F - 29.7 °F 82% 30.11 in 10.0 mi Calm Calm - N/A   Mostly Cloudy
11:15 AM 37.4 °F - 31.1 °F 78% 30.09 in 10.0 mi Calm Calm - N/A   Mostly Cloudy
11:35 AM 38.3 °F 35.9 °F 30.2 °F 73% 30.08 in 10.0 mi SW 3.5 mph - N/A   Scattered Clouds
11:55 AM 39.2 °F 37.0 °F 30.0 °F 70% 30.06 in 10.0 mi WSW 3.5 mph - N/A   Clear
12:15 PM 41.2 °F 39.2 °F 30.6 °F 66% 30.04 in 10.0 mi WSW 3.5 mph - N/A   Clear
12:35 PM 43.0 °F - 30.7 °F 62% 30.02 in 10.0 mi Calm Calm - N/A   Clear
1:15 PM 44.2 °F - 29.5 °F 56% 30.00 in 10.0 mi Calm Calm - N/A   Overcast
1:35 PM 44.8 °F - 29.8 °F 56% 29.99 in 10.0 mi Calm Calm - N/A   Overcast
1:55 PM 45.7 °F - 30.6 °F 56% 29.98 in 10.0 mi Calm Calm - N/A   Overcast
2:15 PM 46.9 °F - 28.9 °F 50% 29.97 in 10.0 mi Calm Calm - N/A   Overcast
2:35 PM 47.1 °F - 29.8 °F 51% 29.97 in 10.0 mi Calm Calm - N/A   Overcast
2:55 PM 47.7 °F - 28.8 °F 48% 29.95 in 10.0 mi Calm Calm - N/A   Overcast
3:15 PM 47.7 °F - 30.0 °F 50% 29.94 in 10.0 mi Calm Calm - N/A   Mostly Cloudy
3:35 PM 47.5 °F - 29.5 °F 50% 29.94 in 10.0 mi Calm Calm - N/A   Mostly Cloudy
3:55 PM 47.3 °F - 29.8 °F 51% 29.94 in 10.0 mi Calm Calm - N/A   Overcast
4:15 PM 47.3 °F - 31.1 °F 53% 29.93 in 10.0 mi Calm Calm - N/A   Overcast
4:35 PM 46.9 °F - 31.1 °F 54% 29.94 in 10.0 mi Calm Calm - N/A   Overcast
4:55 PM 46.2 °F - 31.8 °F 57% 29.94 in 10.0 mi Calm Calm - N/A   Overcast
5:15 PM 45.1 °F - 33.8 °F 65% 29.93 in 10.0 mi Calm Calm - N/A   Overcast
5:35 PM 44.6 °F - 31.8 °F 61% 29.93 in 10.0 mi Calm Calm - N/A   Mostly Cloudy
5:55 PM 46.0 °F 43.9 °F 28.6 °F 51% 29.93 in 10.0 mi SSE 4.6 mph - N/A   Mostly Cloudy
6:15 PM 45.1 °F 41.4 °F 28.6 °F 52% 29.94 in 10.0 mi South 6.9 mph - N/A   Overcast
6:35 PM 45.0 °F - 28.0 °F 52% 29.94 in 10.0 mi Calm Calm - N/A   Overcast
6:55 PM 44.4 °F 42.9 °F 28.4 °F 53% 29.95 in 10.0 mi SE 3.5 mph - N/A   Overcast
7:15 PM 44.1 °F 39.5 °F 27.9 °F 53% 29.95 in 10.0 mi SSE 8.1 mph - N/A   Overcast
7:35 PM 42.4 °F 37.5 °F 28.9 °F 59% 29.94 in 10.0 mi SSE 8.1 mph - N/A   Overcast
7:55 PM 42.3 °F 39.4 °F 27.9 °F 57% 29.94 in 10.0 mi SSE 4.6 mph - N/A   Overcast
8:15 PM 42.3 °F - 27.0 °F 55% 29.94 in 10.0 mi Calm Calm - N/A   Overcast
8:35 PM 41.9 °F 39.0 °F 27.7 °F 57% 29.92 in 10.0 mi ESE 4.6 mph - N/A   Light Drizzle
8:55 PM 41.2 °F - 28.0 °F 60% 29.93 in 10.0 mi Calm Calm - N/A   Light Drizzle
9:15 PM 40.6 °F 38.6 °F 29.5 °F 64% 29.93 in 10.0 mi ENE 3.5 mph - N/A Rain Light Rain
9:35 PM 39.2 °F - 31.8 °F 75% 29.93 in 10.0 mi Calm Calm - N/A Rain Rain
9:55 PM 38.5 °F - 32.4 °F 79% 29.94 in 7.0 mi Calm Calm - 0.02 in Rain Rain
10:15 PM 37.6 °F 35.1 °F 33.4 °F 85% 29.93 in 5.0 mi East 3.5 mph - 0.03 in Rain Rain
10:35 PM 36.9 °F - 34.5 °F 91% 29.92 in 4.0 mi Calm Calm - 0.06 in Rain Rain
10:55 PM 36.5 °F - 34.7 °F 93% 29.92 in 4.0 mi Calm Calm - 0.09 in Rain Rain
11:15 PM 36.3 °F - 35.1 °F 95% 29.91 in 4.0 mi Calm Calm - 0.04 in Rain Light Rain
11:35 PM 36.3 °F - 35.1 °F 95% 29.92 in 5.0 mi Calm Calm - 0.06 in Rain Rain
11:55 PM 36.1 °F - 34.7 °F 94% 29.92 in 5.0 mi Calm Calm - 0.08 in Rain Light Rain